This demonstration page uses our WeatherBlox Daily Observations layout. Learn more.

Left ArrowRight Arrow

39.51506, -84.39828

Hourly Observations for January 29, 2022

Temp ( °F °C ) Dew Point ( °F °C ) Humidity (%) Winds ( mph kmh ) Pressure ( in mb ) Visibility ( mi km ) Precip ( " mm )
12:15 am 00:15 Mostly Cloudy 11 -11.6 4 -15.8 71 71 NE 5 7 30.35 1028 10 16 0.00 0.00
12:35 am 00:35 Partly Cloudy 10 -12.1 4 -15.4 77 77 NNE 5 7 30.35 1028 10 16 0.00 0.00
12:55 am 00:55 Partly Cloudy 9 -12.9 5 -14.8 86 86 N 6 9 30.35 1028 10 16 0.00 0.00
1:15 am 01:15 Cloudy 9 -12.7 5 -15.2 82 82 NNE 5 7 30.34 1027 10 16 0.00 0.00
1:35 am 01:35 Cloudy 10 -12.5 5 -14.9 82 82 NNE 3 6 30.34 1027 10 16 0.00 0.00
1:55 am 01:55 Cloudy with Light Snow 8 -13.5 5 -14.9 89 89 N 5 7 30.34 1028 10 16 0.00 0.00
2:15 am 02:15 Cloudy 8 -13.3 6 -14.5 91 91 NNE 3 6 30.33 1027 10 16 0.00 0.00
2:35 am 02:35 Partly Cloudy 7 -14 5 -15 92 92 NNW 3 6 30.34 1027 10 16 0.00 0.00
2:55 am 02:55 Partly Cloudy 6 -14.4 4 -15.8 89 89 N 3 6 30.35 1028 7 11 0.00 0.00
3:15 am 03:15 Partly Cloudy with Mist and Fog 5 -14.8 2 -16.5 87 87 Calm 30.35 1028 5 8 0.00 0.00
3:35 am 03:35 Partly Cloudy with Mist and Fog 5 -15 2 -16.9 86 86 Calm 30.35 1028 4 6 0.00 0.00
3:55 am 03:55 Clear with Mist and Fog 4 -15.3 1 -17.3 85 85 Calm 30.34 1027 7 11 0.00 0.00
4:15 am 04:15 Clear 4 -15.8 0 -17.8 85 85 Calm 30.35 1028 10 16 0.00 0.00
4:35 am 04:35 Clear with Mist and Fog 3 -16.2 -1 -18.2 85 85 Calm 30.35 1028 5 8 0.00 0.00
4:55 am 04:55 Clear with Mist and Fog 1 -17.4 -3 -19.6 83 83 Calm 30.36 1028 3 4 0.00 0.00
5:15 am 05:15 Clear with Mist and Fog 3 -16.2 -1 -18.3 84 84 Calm 30.36 1028 7 11 0.00 0.00
5:35 am 05:35 Clear 1 -17 -3 -19.3 82 82 Calm 30.37 1028 10 16 0.00 0.00
5:55 am 05:55 Clear 1 -17.5 -4 -19.8 82 82 E 3 6 30.37 1028 10 16 0.00 0.00
6:15 am 06:15 Clear -1 -18.1 -5 -20.5 82 82 Calm 30.38 1029 10 16 0.00 0.00
6:35 am 06:35 Clear 1 -17.3 -3 -19.4 84 84 Calm 30.39 1029 7 11 0.00 0.00
6:55 am 06:55 Clear -2 -18.7 -6 -21.3 80 80 Calm 30.39 1029 10 16 0.00 0.00
7:15 am 07:15 Clear 0 -17.9 -4 -20.1 83 83 Calm 30.39 1029 7 11 0.00 0.00
7:35 am 07:35 Mostly Cloudy -1 -18.5 -6 -21 81 81 Calm 30.39 1029 10 16 0.00 0.00
7:55 am 07:55 Cloudy -2 -19 -7 -21.5 81 81 Calm 30.39 1029 10 16 0.00 0.00
8:15 am 08:15 Mostly Cloudy -1 -18.2 -5 -20.5 82 82 Calm 30.39 1029 10 16 0.00 0.00
8:35 am 08:35 Partly Cloudy 0 -17.6 -4 -19.9 82 82 Calm 30.40 1029 10 16 0.00 0.00
8:55 am 08:55 Sunny with Mist and Fog 2 -16.6 -2 -18.7 84 84 Calm 30.39 1029 5 8 0.00 0.00
9:15 am 09:15 Sunny 5 -15.2 1 -17.3 84 84 Calm 30.40 1029 7 11 0.00 0.00
9:35 am 09:35 Partly Cloudy 6 -14.2 3 -16.1 86 86 Calm 30.40 1029 10 16 0.00 0.00
9:55 am 09:55 Partly Cloudy 8 -13.3 5 -15.1 86 86 Calm 30.39 1029 10 16 0.00 0.00
10:15 am 10:15 Sunny 9 -12.8 6 -14.5 87 87 Calm 30.38 1029 10 16 0.00 0.00
10:35 am 10:35 Sunny with Light Snow 11 -11.9 8 -13.5 88 88 SSW 5 7 30.37 1028 10 16 0.00 0.00
10:55 am 10:55 Sunny 12 -11.1 9 -12.6 89 89 SW 3 6 30.37 1028 10 16 0.00 0.00
11:15 am 11:15 Sunny 13 -10.5 10 -12 89 89 SW 6 9 30.37 1028 10 16 0.00 0.00
11:35 am 11:35 Sunny 15 -9.7 9 -12.9 78 78 WSW 6 9 30.36 1028 10 16 0.00 0.00
11:55 am 11:55 Sunny 16 -8.9 8 -13.2 71 71 SW 8 13 30.35 1028 10 16 0.00 0.00
12:15 pm 12:15 Sunny 17 -8.1 8 -13.6 65 65 SW 7 11 30.34 1027 10 16 0.00 0.00
12:35 pm 12:35 Sunny 19 -7.4 7 -13.8 61 61 WNW 8 13 30.32 1027 10 16 0.00 0.00
12:55 pm 12:55 Sunny 19 -7.4 6 -14.6 57 57 WSW 8 13 30.31 1026 10 16 0.00 0.00
1:15 pm 13:15 Sunny 19 -7 8 -13.4 61 61 SW 6 9 30.29 1026 10 16 0.00 0.00
1:35 pm 13:35 Sunny 20 -6.6 8 -13.5 58 58 SW 7 11 30.27 1025 10 16 0.00 0.00
1:55 pm 13:55 Mostly Cloudy 20 -6.5 8 -13.4 58 58 WSW 6 9 30.26 1025 10 16 0.00 0.00
2:15 pm 14:15 Cloudy 21 -6.3 8 -13.3 58 58 WSW 8 13 30.25 1024 10 16 0.00 0.00
2:35 pm 14:35 Cloudy 22 -5.6 10 -12.2 60 60 SW 7 11 30.24 1024 10 16 0.00 0.00
2:55 pm 14:55 Cloudy 22 -5.6 9 -12.6 58 58 SW 6 9 30.23 1024 10 16 0.00 0.00
3:15 pm 15:15 Cloudy 22 -5.8 9 -12.9 58 58 SW 6 9 30.22 1023 10 16 0.00 0.00
3:35 pm 15:35 Cloudy 22 -5.4 10 -12.4 58 58 SW 12 19 30.21 1023 10 16 0.00 0.00
3:55 pm 15:55 Cloudy 22 -5.6 9 -12.7 58 58 WSW 3 6 30.20 1023 10 16 0.00 0.00
4:15 pm 16:15 Cloudy 22 -5.5 9 -12.7 57 57 SW 10 17 30.20 1023 10 16 0.00 0.00
4:35 pm 16:35 Cloudy 22 -5.3 9 -12.8 56 56 WSW 9 15 30.19 1022 10 16 0.00 0.00
4:55 pm 16:55 Cloudy 23 -5.1 9 -12.7 56 56 SW 8 13 30.18 1022 10 16 0.00 0.00
5:15 pm 17:15 Mostly Cloudy 23 -5.2 8 -13.2 54 54 SW 8 13 30.19 1022 10 16 0.00 0.00
5:35 pm 17:35 Sunny 21 -5.9 8 -13.4 56 56 WSW 6 9 30.19 1022 10 16 0.00 0.00
5:55 pm 17:55 Clear 20 -6.5 8 -13.1 60 60 SW 9 15 30.17 1022 10 16 0.00 0.00
6:15 pm 18:15 Partly Cloudy 21 -6.2 9 -12.7 60 60 SW 8 13 30.16 1021 10 16 0.00 0.00
6:35 pm 18:35 Partly Cloudy 20 -6.4 8 -13.3 58 58 SSW 7 11 30.16 1021 10 16 0.00 0.00
6:55 pm 18:55 Mostly Cloudy 21 -6 8 -13.3 57 57 SSW 8 13 30.16 1021 10 16 0.00 0.00
7:15 pm 19:15 Cloudy 21 -5.9 9 -13 58 58 SSW 9 15 30.16 1021 10 16 0.00 0.00
7:35 pm 19:35 Mostly Cloudy 21 -6.2 8 -13.2 58 58 SSW 9 15 30.16 1021 10 16 0.00 0.00
7:55 pm 19:55 Clear 20 -6.4 8 -13.1 59 59 SW 7 11 30.15 1021 10 16 0.00 0.00
8:15 pm 20:15 Clear 19 -7.1 8 -13.2 62 62 SW 8 13 30.16 1021 10 16 0.00 0.00
8:35 pm 20:35 Clear 19 -7.4 8 -13.4 63 63 SW 7 11 30.16 1021 10 16 0.00 0.00
8:55 pm 20:55 Clear 18 -8 8 -13.5 65 65 SW 7 11 30.15 1021 10 16 0.00 0.00
9:15 pm 21:15 Clear 16 -8.8 8 -13.5 69 69 WSW 5 7 30.14 1021 10 16 0.00 0.00
9:35 pm 21:35 Clear 16 -9.1 9 -13 74 74 SW 6 9 30.13 1020 10 16 0.00 0.00
9:55 pm 21:55 Clear 15 -9.5 9 -12.7 78 78 WSW 5 7 30.12 1020 10 16 0.00 0.00
10:15 pm 22:15 Clear 16 -8.9 9 -12.7 74 74 WSW 7 11 30.12 1020 10 16 0.00 0.00
10:35 pm 22:35 Partly Cloudy 16 -8.8 9 -12.8 73 73 W 5 7 30.12 1020 10 16 0.00 0.00
10:55 pm 22:55 Partly Cloudy 16 -9 10 -12.3 77 77 W 5 7 30.12 1020 10 16 0.00 0.00
11:15 pm 23:15 Partly Cloudy 15 -9.4 10 -12.2 80 80 WSW 3 6 30.12 1020 10 16 0.00 0.00
11:35 pm 23:35 Clear 17 -8.2 11 -11.6 77 77 SW 6 9 30.11 1020 10 16 0.00 0.00
11:55 pm 23:55 Partly Cloudy 19 -7.2 10 -12 69 69 SW 6 9 30.10 1019 10 16 0.00 0.00

Powered by AerisWeather